Year,Month,Day,Hour,Minute,Value (Times are PST for temperature in C)
2012,10,25,00,00,7.20
2012,10,25,00,01,7.20
2012,10,25,00,02,7.20
2012,10,25,00,03,7.20
2012,10,25,00,04,7.20
2012,10,25,00,05,7.20
2012,10,25,00,06,7.20
2012,10,25,00,07,7.20
2012,10,25,00,08,7.20
2012,10,25,00,09,7.20
2012,10,25,00,10,7.20
2012,10,25,00,11,7.20
2012,10,25,00,12,7.20
2012,10,25,00,13,7.20
2012,10,25,00,14,7.20
2012,10,25,00,15,7.20
2012,10,25,00,16,7.20
2012,10,25,00,17,7.20
2012,10,25,00,18,7.20
2012,10,25,00,19,7.20
2012,10,25,00,20,7.20
2012,10,25,00,21,7.20
2012,10,25,00,22,7.20
2012,10,25,00,23,7.20
2012,10,25,00,24,7.20
2012,10,25,00,25,7.20
2012,10,25,00,26,7.20
2012,10,25,00,27,7.20
2012,10,25,00,28,7.20
2012,10,25,00,29,7.20
2012,10,25,00,30,7.20
2012,10,25,00,31,7.20
2012,10,25,00,32,7.20
2012,10,25,00,33,7.20
2012,10,25,00,34,7.20
2012,10,25,00,35,7.20
2012,10,25,00,36,7.20
2012,10,25,00,37,7.20
2012,10,25,00,38,7.20
2012,10,25,00,39,7.20
2012,10,25,00,40,7.20
2012,10,25,00,41,7.10
2012,10,25,00,42,7.10
2012,10,25,00,43,7.10
2012,10,25,00,44,7.10
2012,10,25,00,45,7.10
2012,10,25,00,46,7.10
2012,10,25,00,47,7.10
2012,10,25,00,48,7.10
2012,10,25,00,49,7.10
2012,10,25,00,50,7.00
2012,10,25,00,51,7.00
2012,10,25,00,52,7.00
2012,10,25,00,53,7.00
2012,10,25,00,54,7.00
2012,10,25,00,55,7.00
2012,10,25,00,56,6.90
2012,10,25,00,57,6.90
2012,10,25,00,58,6.90
2012,10,25,00,59,6.90
2012,10,25,01,00,6.90
2012,10,25,01,01,6.90
2012,10,25,01,02,6.90
2012,10,25,01,03,6.80
2012,10,25,01,04,6.80
2012,10,25,01,05,6.80
2012,10,25,01,06,6.80
2012,10,25,01,07,6.80
2012,10,25,01,08,6.70
2012,10,25,01,09,6.70
2012,10,25,01,10,6.70
2012,10,25,01,11,6.70
2012,10,25,01,12,6.70
2012,10,25,01,13,6.70
2012,10,25,01,14,6.60
2012,10,25,01,15,6.60
2012,10,25,01,16,6.60
2012,10,25,01,17,6.60
2012,10,25,01,18,6.60
2012,10,25,01,19,6.60
2012,10,25,01,20,6.60
2012,10,25,01,21,6.60
2012,10,25,01,22,6.50
2012,10,25,01,23,6.50
2012,10,25,01,24,6.50
2012,10,25,01,25,6.50
2012,10,25,01,26,6.50
2012,10,25,01,27,6.50
2012,10,25,01,28,6.50
2012,10,25,01,29,6.50
2012,10,25,01,30,6.50
2012,10,25,01,31,6.50
2012,10,25,01,32,6.40
2012,10,25,01,33,6.40
2012,10,25,01,34,6.40
2012,10,25,01,35,6.40
2012,10,25,01,36,6.40
2012,10,25,01,37,6.40
2012,10,25,01,38,6.40
2012,10,25,01,39,6.40
2012,10,25,01,40,6.40
2012,10,25,01,41,6.40
2012,10,25,01,42,6.40
2012,10,25,01,43,6.40
2012,10,25,01,44,6.40
2012,10,25,01,45,6.40
2012,10,25,01,46,6.40
2012,10,25,01,47,6.40
2012,10,25,01,48,6.40
2012,10,25,01,49,6.40
2012,10,25,01,50,6.40
2012,10,25,01,51,6.40
2012,10,25,01,52,6.40
2012,10,25,01,53,6.50
2012,10,25,01,54,6.50
2012,10,25,01,55,6.50
2012,10,25,01,56,6.50
2012,10,25,01,57,6.60
2012,10,25,01,58,6.60
2012,10,25,01,59,6.60
2012,10,25,02,00,6.60
2012,10,25,02,01,6.60
2012,10,25,02,02,6.60
2012,10,25,02,03,6.70
2012,10,25,02,04,6.70
2012,10,25,02,05,6.70
2012,10,25,02,06,6.70
2012,10,25,02,07,6.70
2012,10,25,02,08,6.70
2012,10,25,02,09,6.70
2012,10,25,02,10,6.70
2012,10,25,02,11,6.70
2012,10,25,02,12,6.70
2012,10,25,02,13,6.70
2012,10,25,02,14,6.70
2012,10,25,02,15,6.70
2012,10,25,02,16,6.70
2012,10,25,02,17,6.70
2012,10,25,02,18,6.70
2012,10,25,02,19,6.70
2012,10,25,02,20,6.70
2012,10,25,02,21,6.70
2012,10,25,02,22,6.70
2012,10,25,02,23,6.70
2012,10,25,02,24,6.70
2012,10,25,02,25,6.70
2012,10,25,02,26,6.70
2012,10,25,02,27,6.70
2012,10,25,02,28,6.70
2012,10,25,02,29,6.70
2012,10,25,02,30,6.70
2012,10,25,02,31,6.70
2012,10,25,02,32,6.70
2012,10,25,02,33,6.70
2012,10,25,02,34,6.70
2012,10,25,02,35,6.70
2012,10,25,02,36,6.70
2012,10,25,02,37,6.60
2012,10,25,02,38,6.60
2012,10,25,02,39,6.60
2012,10,25,02,40,6.60
2012,10,25,02,41,6.60
2012,10,25,02,42,6.60
2012,10,25,02,43,6.60
2012,10,25,02,44,6.50
2012,10,25,02,45,6.50
2012,10,25,02,46,6.50
2012,10,25,02,47,6.50
2012,10,25,02,48,6.50
2012,10,25,02,49,6.40
2012,10,25,02,50,6.40
2012,10,25,02,51,6.40
2012,10,25,02,52,6.40
2012,10,25,02,53,6.40
2012,10,25,02,54,6.40
2012,10,25,02,55,6.40
2012,10,25,02,56,6.40
2012,10,25,02,57,6.30
2012,10,25,02,58,6.30
2012,10,25,02,59,6.30
2012,10,25,03,00,6.30
2012,10,25,03,01,6.30
2012,10,25,03,02,6.30
2012,10,25,03,03,6.30
2012,10,25,03,04,6.30
2012,10,25,03,05,6.20
2012,10,25,03,06,6.20
2012,10,25,03,07,6.20
2012,10,25,03,08,6.20
2012,10,25,03,09,6.20
2012,10,25,03,10,6.20
2012,10,25,03,11,6.20
2012,10,25,03,12,6.20
2012,10,25,03,13,6.20
2012,10,25,03,14,6.20
2012,10,25,03,15,6.20
2012,10,25,03,16,6.20
2012,10,25,03,17,6.20
2012,10,25,03,18,6.20
2012,10,25,03,19,6.10
2012,10,25,03,20,6.10
2012,10,25,03,21,6.10
2012,10,25,03,22,6.10
2012,10,25,03,23,6.10
2012,10,25,03,24,6.10
2012,10,25,03,25,6.10
2012,10,25,03,26,6.10
2012,10,25,03,27,6.10
2012,10,25,03,28,6.20
2012,10,25,03,29,6.20
2012,10,25,03,30,6.20
2012,10,25,03,31,6.20
2012,10,25,03,32,6.20
2012,10,25,03,33,6.20
2012,10,25,03,34,6.20
2012,10,25,03,35,6.20
2012,10,25,03,36,6.20
2012,10,25,03,37,6.20
2012,10,25,03,38,6.20
2012,10,25,03,39,6.20
2012,10,25,03,40,6.20
2012,10,25,03,41,6.20
2012,10,25,03,42,6.20
2012,10,25,03,43,6.20
2012,10,25,03,44,6.20
2012,10,25,03,45,6.20
2012,10,25,03,46,6.20
2012,10,25,03,47,6.20
2012,10,25,03,48,6.20
2012,10,25,03,49,6.20
2012,10,25,03,50,6.30
2012,10,25,03,51,6.20
2012,10,25,03,52,6.20
2012,10,25,03,53,6.30
2012,10,25,03,54,6.20
2012,10,25,03,55,6.30
2012,10,25,03,56,6.20
2012,10,25,03,57,6.20
2012,10,25,03,58,6.20
2012,10,25,03,59,6.20
2012,10,25,04,00,6.20
2012,10,25,04,01,6.20
2012,10,25,04,02,6.20
2012,10,25,04,03,6.20
2012,10,25,04,04,6.20
2012,10,25,04,05,6.20
2012,10,25,04,06,6.20
2012,10,25,04,07,6.20
2012,10,25,04,08,6.20
2012,10,25,04,09,6.20
2012,10,25,04,10,6.20
2012,10,25,04,11,6.10
2012,10,25,04,12,6.10
2012,10,25,04,13,6.10
2012,10,25,04,14,6.10
2012,10,25,04,15,6.10
2012,10,25,04,16,6.10
2012,10,25,04,17,6.10
2012,10,25,04,18,6.10
2012,10,25,04,19,6.20
2012,10,25,04,20,6.10
2012,10,25,04,21,6.20
2012,10,25,04,22,6.10
2012,10,25,04,23,6.10
2012,10,25,04,24,6.10
2012,10,25,04,25,6.10
2012,10,25,04,26,6.10
2012,10,25,04,27,6.10
2012,10,25,04,28,6.00
2012,10,25,04,29,6.00
2012,10,25,04,30,5.90
2012,10,25,04,31,5.90
2012,10,25,04,32,5.90
2012,10,25,04,33,5.90
2012,10,25,04,34,5.80
2012,10,25,04,35,5.80
2012,10,25,04,36,5.80
2012,10,25,04,37,5.80
2012,10,25,04,38,5.80
2012,10,25,04,39,5.70
2012,10,25,04,40,5.70
2012,10,25,04,41,5.70
2012,10,25,04,42,5.70
2012,10,25,04,43,5.70
2012,10,25,04,44,5.70
2012,10,25,04,45,5.70
2012,10,25,04,46,5.70
2012,10,25,04,47,5.70
2012,10,25,04,48,5.70
2012,10,25,04,49,5.70
2012,10,25,04,50,5.60
2012,10,25,04,51,5.60
2012,10,25,04,52,5.60
2012,10,25,04,53,5.60
2012,10,25,04,54,5.60
2012,10,25,04,55,5.60
2012,10,25,04,56,5.60
2012,10,25,04,57,5.50
2012,10,25,04,58,5.50
2012,10,25,04,59,5.40
2012,10,25,05,00,5.40
2012,10,25,05,01,5.40
2012,10,25,05,02,5.40
2012,10,25,05,03,5.40
2012,10,25,05,04,5.40
2012,10,25,05,05,5.40
2012,10,25,05,06,5.40
2012,10,25,05,07,5.40
2012,10,25,05,08,5.40
2012,10,25,05,09,5.40
2012,10,25,05,10,5.40
2012,10,25,05,11,5.40
2012,10,25,05,12,5.40
2012,10,25,05,13,5.40
2012,10,25,05,14,5.40
2012,10,25,05,15,5.40
2012,10,25,05,16,5.40
2012,10,25,05,17,5.40
2012,10,25,05,18,5.40
2012,10,25,05,19,5.40
2012,10,25,05,20,5.40
2012,10,25,05,21,5.40
2012,10,25,05,22,5.40
2012,10,25,05,23,5.40
2012,10,25,05,24,5.40
2012,10,25,05,25,5.40
2012,10,25,05,26,5.40
2012,10,25,05,27,5.40
2012,10,25,05,28,5.40
2012,10,25,05,29,5.40
2012,10,25,05,30,5.40
2012,10,25,05,31,5.50
2012,10,25,05,32,5.50
2012,10,25,05,33,5.50
2012,10,25,05,34,5.50
2012,10,25,05,35,5.50
2012,10,25,05,36,5.50
2012,10,25,05,37,5.50
2012,10,25,05,38,5.50
2012,10,25,05,39,5.50
2012,10,25,05,40,5.50
2012,10,25,05,41,5.50
2012,10,25,05,42,5.60
2012,10,25,05,43,5.60
2012,10,25,05,44,5.60
2012,10,25,05,45,5.60
2012,10,25,05,46,5.60
2012,10,25,05,47,5.60
2012,10,25,05,48,5.60
2012,10,25,05,49,5.60
2012,10,25,05,50,5.60
2012,10,25,05,51,5.60
2012,10,25,05,52,5.60
2012,10,25,05,53,5.70
2012,10,25,05,54,5.70
2012,10,25,05,55,5.70
2012,10,25,05,56,5.70
2012,10,25,05,57,5.70
2012,10,25,05,58,5.70
2012,10,25,05,59,5.70
2012,10,25,06,00,5.70
2012,10,25,06,01,5.80
2012,10,25,06,02,5.80
2012,10,25,06,03,5.80
2012,10,25,06,04,5.80
2012,10,25,06,05,5.80
2012,10,25,06,06,5.80
2012,10,25,06,07,5.80
2012,10,25,06,08,5.80
2012,10,25,06,09,5.80
2012,10,25,06,10,5.90
2012,10,25,06,11,5.90
2012,10,25,06,12,5.90
2012,10,25,06,13,5.90
2012,10,25,06,14,5.90
2012,10,25,06,15,5.90
2012,10,25,06,16,6.00
2012,10,25,06,17,6.00
2012,10,25,06,18,6.00
2012,10,25,06,19,6.00
2012,10,25,06,20,6.00
2012,10,25,06,21,6.10
2012,10,25,06,22,6.10
2012,10,25,06,23,6.10
2012,10,25,06,24,6.10
2012,10,25,06,25,6.10
2012,10,25,06,26,6.10
2012,10,25,06,27,6.10
2012,10,25,06,28,6.10
2012,10,25,06,29,6.20
2012,10,25,06,30,6.20
2012,10,25,06,31,6.20
2012,10,25,06,32,6.20
2012,10,25,06,33,6.20
2012,10,25,06,34,6.30
2012,10,25,06,35,6.30
2012,10,25,06,36,6.30
2012,10,25,06,37,6.40
2012,10,25,06,38,6.40
2012,10,25,06,39,6.40
2012,10,25,06,40,6.40
2012,10,25,06,41,6.40
2012,10,25,06,42,6.40
2012,10,25,06,43,6.40
2012,10,25,06,44,6.40
2012,10,25,06,45,6.40
2012,10,25,06,46,6.40
2012,10,25,06,47,6.40
2012,10,25,06,48,6.40
2012,10,25,06,49,6.40
2012,10,25,06,50,6.40
2012,10,25,06,51,6.40
2012,10,25,06,52,6.40
2012,10,25,06,53,6.40
2012,10,25,06,54,6.40
2012,10,25,06,55,6.40
2012,10,25,06,56,6.40
2012,10,25,08,54,7.30
2012,10,25,08,55,7.30
2012,10,25,08,56,7.30
2012,10,25,08,57,7.30
2012,10,25,08,58,7.30
2012,10,25,08,59,7.30
2012,10,25,09,00,7.30
2012,10,25,09,01,7.30
2012,10,25,09,02,7.30
2012,10,25,09,03,7.30
2012,10,25,09,04,7.30
2012,10,25,09,05,7.30
2012,10,25,09,06,7.30
2012,10,25,09,07,7.30
2012,10,25,09,08,7.30
2012,10,25,09,09,7.30
2012,10,25,09,10,7.30
2012,10,25,09,11,7.30
2012,10,25,09,12,7.30
2012,10,25,09,13,7.30
2012,10,25,09,14,7.30
2012,10,25,09,15,7.40
2012,10,25,09,16,7.40
2012,10,25,09,17,7.40
2012,10,25,09,18,7.40
2012,10,25,09,19,7.40
2012,10,25,09,20,7.40
2012,10,25,09,21,7.40
2012,10,25,09,22,7.40
2012,10,25,09,23,7.40
2012,10,25,09,24,7.40
2012,10,25,09,25,7.40
2012,10,25,09,26,7.40
2012,10,25,09,27,7.50
2012,10,25,09,28,7.50
2012,10,25,09,29,7.50
2012,10,25,09,30,7.50
2012,10,25,09,31,7.50
2012,10,25,09,32,7.50
2012,10,25,09,33,7.50
2012,10,25,09,34,7.60
2012,10,25,09,35,7.60
2012,10,25,09,36,7.60
2012,10,25,09,37,7.60
2012,10,25,09,38,7.60
2012,10,25,09,39,7.70
2012,10,25,09,40,7.70
2012,10,25,09,41,7.70
2012,10,25,09,42,7.70
2012,10,25,09,43,7.70
2012,10,25,09,44,7.70
2012,10,25,09,45,7.70
2012,10,25,09,46,7.70
2012,10,25,09,47,7.70
2012,10,25,09,48,7.80
2012,10,25,09,49,7.80
2012,10,25,09,50,7.80
2012,10,25,09,51,7.80
2012,10,25,09,52,7.80
2012,10,25,09,53,7.80
2012,10,25,09,54,7.80
2012,10,25,09,55,7.90
2012,10,25,09,56,7.90
2012,10,25,09,57,7.90
2012,10,25,09,58,7.90
2012,10,25,09,59,7.90
2012,10,25,10,00,7.90
2012,10,25,10,01,7.90
2012,10,25,10,02,7.90
2012,10,25,10,03,8.00
2012,10,25,10,04,8.00
2012,10,25,10,05,8.00
2012,10,25,10,06,8.10
2012,10,25,10,07,8.10
2012,10,25,10,08,8.10
2012,10,25,10,09,8.10
2012,10,25,10,10,8.10
2012,10,25,10,11,8.10
2012,10,25,10,12,8.10
2012,10,25,10,13,8.10
2012,10,25,10,14,8.10
2012,10,25,10,15,8.10
2012,10,25,10,16,8.20
2012,10,25,10,17,8.20
2012,10,25,10,18,8.20
2012,10,25,10,19,8.20
2012,10,25,10,20,8.20
2012,10,25,10,21,8.30
2012,10,25,10,22,8.30
2012,10,25,10,23,8.40
2012,10,25,10,24,8.40
2012,10,25,10,25,8.50
2012,10,25,10,26,8.50
2012,10,25,10,27,8.60
2012,10,25,10,28,8.60
2012,10,25,10,29,8.60
2012,10,25,10,30,8.60
2012,10,25,10,31,8.60
2012,10,25,10,32,8.70
2012,10,25,10,33,8.70
2012,10,25,10,34,8.70
2012,10,25,10,35,8.80
2012,10,25,10,36,8.80
2012,10,25,10,37,8.80
2012,10,25,10,38,8.80
2012,10,25,10,39,8.90
2012,10,25,10,40,8.90
2012,10,25,10,41,9.00
2012,10,25,10,42,9.00
2012,10,25,10,43,9.00
2012,10,25,10,44,9.10
2012,10,25,10,45,9.10
2012,10,25,10,46,9.10
2012,10,25,10,47,9.10
2012,10,25,10,48,9.10
2012,10,25,10,49,9.10
2012,10,25,10,50,9.10
2012,10,25,10,51,9.10
2012,10,25,10,52,9.10
2012,10,25,10,53,9.10
2012,10,25,10,54,9.10
2012,10,25,10,55,9.10
2012,10,25,10,56,9.10
2012,10,25,10,57,9.00
2012,10,25,10,58,9.00
2012,10,25,10,59,9.00
2012,10,25,11,00,9.10
2012,10,25,11,01,9.10
2012,10,25,11,02,9.10
2012,10,25,11,03,9.10
2012,10,25,11,04,9.10
2012,10,25,11,05,9.10
2012,10,25,11,06,9.20
2012,10,25,11,07,9.20
2012,10,25,11,08,9.20
2012,10,25,11,09,9.30
2012,10,25,11,10,9.30
2012,10,25,11,11,9.30
2012,10,25,11,12,9.40
2012,10,25,11,13,9.40
2012,10,25,11,14,9.40
2012,10,25,11,15,9.50
2012,10,25,11,16,9.50
2012,10,25,11,17,9.50
2012,10,25,11,18,9.60
2012,10,25,11,19,9.50
2012,10,25,11,20,9.50
2012,10,25,11,21,9.40
2012,10,25,11,22,9.30
2012,10,25,11,23,9.30
2012,10,25,11,24,9.20
2012,10,25,11,25,9.20
2012,10,25,11,26,9.20
2012,10,25,11,27,9.10
2012,10,25,11,28,9.10
2012,10,25,11,29,9.10
2012,10,25,11,30,9.10
2012,10,25,11,31,9.10
2012,10,25,11,32,9.10
2012,10,25,11,33,9.10
2012,10,25,11,34,9.10
2012,10,25,11,35,9.10
2012,10,25,11,36,9.10
2012,10,25,11,37,9.10
2012,10,25,11,38,9.10
2012,10,25,11,39,9.20
2012,10,25,11,40,9.20
2012,10,25,11,41,9.20
2012,10,25,11,42,9.20
2012,10,25,11,43,9.20
2012,10,25,11,44,9.20
2012,10,25,11,45,9.20
2012,10,25,11,46,9.20
2012,10,25,11,47,9.20
2012,10,25,11,48,9.20
2012,10,25,11,49,9.20
2012,10,25,11,50,9.30
2012,10,25,11,51,9.30
2012,10,25,11,52,9.30
2012,10,25,11,53,9.30
2012,10,25,11,54,9.30
2012,10,25,11,55,9.30
2012,10,25,11,56,9.30
2012,10,25,11,57,9.30
2012,10,25,11,58,9.30
2012,10,25,11,59,9.30
2012,10,25,12,00,9.30
2012,10,25,12,01,9.30
2012,10,25,12,02,9.30
2012,10,25,12,03,9.30
2012,10,25,12,04,9.30
2012,10,25,12,05,9.30
2012,10,25,12,06,9.40
2012,10,25,12,07,9.40
2012,10,25,12,08,9.40
2012,10,25,12,09,9.40
2012,10,25,12,10,9.40
2012,10,25,12,11,9.50
2012,10,25,12,12,9.50
2012,10,25,12,13,9.50
2012,10,25,12,14,9.50
2012,10,25,12,15,9.50
2012,10,25,12,16,9.50
2012,10,25,12,17,9.60
2012,10,25,12,18,9.60
2012,10,25,12,19,9.50
2012,10,25,12,20,9.50
2012,10,25,12,21,9.50
2012,10,25,12,22,9.40
2012,10,25,12,23,9.50
2012,10,25,12,24,9.40
2012,10,25,12,25,9.40
2012,10,25,12,26,9.40
2012,10,25,12,27,9.40
2012,10,25,12,28,9.40
2012,10,25,12,29,9.40
2012,10,25,12,30,9.40
2012,10,25,12,31,9.40
2012,10,25,12,32,9.40
2012,10,25,12,33,9.40
2012,10,25,12,34,9.50
2012,10,25,12,35,9.60
2012,10,25,12,36,9.60
2012,10,25,12,37,9.70
2012,10,25,12,38,9.70
2012,10,25,12,39,9.80
2012,10,25,12,40,9.90
2012,10,25,12,41,9.90
2012,10,25,12,42,9.90
2012,10,25,12,43,9.80
2012,10,25,12,44,9.80
2012,10,25,12,45,9.80
2012,10,25,12,46,9.70
2012,10,25,12,47,9.70
2012,10,25,12,48,9.60
2012,10,25,12,49,9.60
2012,10,25,12,50,9.60
2012,10,25,12,51,9.60
2012,10,25,12,52,9.60
2012,10,25,12,53,9.60
2012,10,25,12,54,9.60
2012,10,25,12,55,9.60
2012,10,25,12,56,9.60
2012,10,25,12,57,9.60
2012,10,25,12,58,9.70
2012,10,25,12,59,9.70
2012,10,25,13,00,9.70
2012,10,25,13,01,9.70
2012,10,25,13,02,9.70
2012,10,25,13,03,9.70
2012,10,25,13,04,9.70
2012,10,25,13,05,9.70
2012,10,25,13,06,9.80
2012,10,25,13,07,9.90
2012,10,25,13,08,10.00
2012,10,25,13,09,10.00
2012,10,25,13,10,10.10
2012,10,25,13,11,10.20
2012,10,25,13,12,10.20
2012,10,25,13,13,10.20
2012,10,25,13,14,10.20
2012,10,25,13,15,10.20
2012,10,25,13,16,10.20
2012,10,25,13,17,10.20
2012,10,25,13,18,10.10
2012,10,25,13,19,10.10
2012,10,25,13,20,10.10
2012,10,25,13,21,10.00
2012,10,25,13,22,10.00
2012,10,25,13,23,9.90
2012,10,25,13,24,9.90
2012,10,25,13,25,9.90
2012,10,25,13,26,9.80
2012,10,25,13,27,9.80
2012,10,25,13,28,9.80
2012,10,25,13,29,9.70
2012,10,25,13,30,9.70
2012,10,25,13,31,9.70
2012,10,25,13,32,9.70
2012,10,25,13,33,9.70
2012,10,25,13,34,9.60
2012,10,25,13,35,9.60
2012,10,25,13,36,9.60
2012,10,25,13,37,9.60
2012,10,25,13,38,9.70
2012,10,25,13,39,9.70
2012,10,25,13,40,9.70
2012,10,25,13,41,9.70
2012,10,25,13,42,9.70
2012,10,25,13,43,9.70
2012,10,25,13,44,9.70
2012,10,25,13,45,9.70
2012,10,25,13,46,9.60
2012,10,25,13,47,9.60
2012,10,25,13,48,9.60
2012,10,25,13,49,9.50
2012,10,25,13,50,9.50
2012,10,25,13,51,9.60
2012,10,25,13,52,9.60
2012,10,25,13,53,9.60
2012,10,25,13,54,9.60
2012,10,25,13,55,9.60
2012,10,25,13,56,9.70
2012,10,25,13,57,9.70
2012,10,25,13,58,9.70
2012,10,25,13,59,9.70
2012,10,25,14,00,9.70
2012,10,25,14,01,9.70
2012,10,25,14,02,9.70
2012,10,25,14,03,9.70
2012,10,25,14,04,9.70
2012,10,25,14,05,9.60
2012,10,25,14,06,9.60
2012,10,25,14,07,9.60
2012,10,25,14,08,9.60
2012,10,25,14,09,9.70
2012,10,25,14,10,9.70
2012,10,25,14,11,9.70
2012,10,25,14,12,9.70
2012,10,25,14,13,9.70
2012,10,25,14,14,9.70
2012,10,25,14,15,9.70
2012,10,25,14,16,9.70
2012,10,25,14,17,9.70
2012,10,25,14,18,9.70
2012,10,25,14,19,9.70
2012,10,25,14,20,9.70
2012,10,25,14,21,9.70
2012,10,25,14,22,9.70
2012,10,25,14,23,9.70
2012,10,25,14,24,9.70
2012,10,25,14,25,9.70
2012,10,25,14,26,9.70
2012,10,25,14,27,9.70
2012,10,25,14,28,9.80
2012,10,25,14,29,9.80
2012,10,25,14,30,9.80
2012,10,25,14,31,9.80
2012,10,25,14,32,9.90
2012,10,25,14,33,9.90
2012,10,25,14,34,9.90
2012,10,25,14,35,9.90
2012,10,25,14,36,9.90
2012,10,25,14,37,9.90
2012,10,25,14,38,9.90
2012,10,25,14,39,9.90
2012,10,25,14,40,9.90
2012,10,25,14,41,9.90
2012,10,25,14,42,9.90
2012,10,25,14,43,9.80
2012,10,25,14,44,9.80
2012,10,25,14,45,9.80
2012,10,25,14,46,9.80
2012,10,25,14,47,9.80
2012,10,25,14,48,9.80
2012,10,25,14,49,9.80
2012,10,25,14,50,9.80
2012,10,25,14,51,9.90
2012,10,25,14,52,9.90
2012,10,25,14,53,9.90
2012,10,25,14,54,9.90
2012,10,25,14,55,9.90
2012,10,25,14,56,9.90
2012,10,25,14,57,9.90
2012,10,25,14,58,9.90
2012,10,25,14,59,9.90
2012,10,25,15,00,9.90
2012,10,25,15,01,9.90
2012,10,25,15,02,9.90
2012,10,25,15,03,9.90
2012,10,25,15,04,9.90
2012,10,25,15,05,9.90
2012,10,25,15,06,10.00
2012,10,25,15,07,10.00
2012,10,25,15,08,10.10
2012,10,25,15,09,10.10
2012,10,25,15,10,10.10
2012,10,25,15,11,10.10
2012,10,25,15,12,10.10
2012,10,25,15,13,10.10
2012,10,25,15,14,10.10
2012,10,25,15,15,10.00
2012,10,25,15,16,10.00
2012,10,25,15,17,10.00
2012,10,25,15,18,9.90
2012,10,25,15,19,9.90
2012,10,25,15,20,9.90
2012,10,25,15,21,10.00
2012,10,25,15,22,10.00
2012,10,25,15,23,10.00
2012,10,25,15,24,10.00
2012,10,25,15,25,10.00
2012,10,25,15,26,10.00
2012,10,25,15,27,10.00
2012,10,25,15,28,10.00
2012,10,25,15,29,10.00
2012,10,25,15,30,10.00
2012,10,25,15,31,9.90
2012,10,25,15,32,9.90
2012,10,25,15,33,9.90
2012,10,25,15,34,9.90
2012,10,25,15,35,10.00
2012,10,25,15,36,9.90
2012,10,25,15,37,10.00
2012,10,25,15,38,9.90
2012,10,25,15,39,9.90
2012,10,25,15,40,9.90
2012,10,25,15,41,9.90
2012,10,25,15,42,9.90
2012,10,25,15,43,9.90
2012,10,25,15,44,9.90
2012,10,25,15,45,9.90
2012,10,25,15,46,10.00
2012,10,25,15,47,9.90
2012,10,25,15,48,9.90
2012,10,25,15,49,9.90
2012,10,25,15,50,9.90
2012,10,25,15,51,9.90
2012,10,25,15,52,9.90
2012,10,25,15,53,9.90
2012,10,25,15,54,9.90
2012,10,25,15,55,9.90
2012,10,25,15,56,9.90
2012,10,25,15,57,9.90
2012,10,25,15,58,9.90
2012,10,25,15,59,9.90
2012,10,25,16,00,9.90
2012,10,25,16,01,9.90
2012,10,25,16,02,10.00
2012,10,25,16,03,10.00
2012,10,25,16,04,10.00
2012,10,25,16,05,10.00
2012,10,25,16,06,10.00
2012,10,25,16,07,10.00
2012,10,25,16,08,10.00
2012,10,25,16,09,10.00
2012,10,25,16,10,9.90
2012,10,25,16,11,10.00
2012,10,25,16,12,10.00
2012,10,25,16,13,10.00
2012,10,25,16,14,9.90
2012,10,25,16,15,9.90
2012,10,25,16,16,9.90
2012,10,25,16,17,9.90
2012,10,25,16,18,9.90
2012,10,25,16,19,9.90
2012,10,25,16,20,9.90
2012,10,25,16,21,9.90
2012,10,25,16,22,9.90
2012,10,25,16,23,9.90
2012,10,25,16,24,9.90
2012,10,25,16,25,9.90
2012,10,25,16,26,9.90
2012,10,25,16,27,9.80
2012,10,25,16,28,9.80
2012,10,25,16,29,9.80
2012,10,25,16,30,9.80
2012,10,25,16,31,9.80
2012,10,25,16,32,9.80
2012,10,25,16,33,9.80
2012,10,25,16,34,9.80
2012,10,25,16,35,9.80
2012,10,25,16,36,9.80
2012,10,25,16,37,9.80
2012,10,25,16,38,9.80
2012,10,25,16,39,9.80
2012,10,25,16,40,9.80
2012,10,25,16,41,9.80
2012,10,25,16,42,9.80
2012,10,25,16,43,9.80
2012,10,25,16,44,9.80
2012,10,25,16,45,9.70
2012,10,25,16,46,9.70
2012,10,25,16,47,9.70
2012,10,25,16,48,9.70
2012,10,25,16,49,9.70
2012,10,25,16,50,9.70
2012,10,25,16,51,9.70
2012,10,25,16,52,9.60
2012,10,25,16,53,9.60
2012,10,25,16,54,9.60
2012,10,25,16,55,9.60
2012,10,25,16,56,9.60
2012,10,25,16,57,9.60
2012,10,25,16,58,9.60
2012,10,25,16,59,9.60
2012,10,25,17,00,9.60
2012,10,25,17,01,9.60
2012,10,25,17,02,9.50
2012,10,25,17,03,9.50
2012,10,25,17,04,9.50
2012,10,25,17,05,9.50
2012,10,25,17,06,9.50
2012,10,25,17,07,9.50
2012,10,25,17,08,9.50
2012,10,25,17,09,9.40
2012,10,25,17,10,9.40
2012,10,25,17,11,9.40
2012,10,25,17,12,9.40
2012,10,25,17,13,9.40
2012,10,25,17,14,9.40
2012,10,25,17,15,9.40
2012,10,25,17,16,9.40
2012,10,25,17,17,9.40
2012,10,25,17,18,9.40
2012,10,25,17,19,9.40
2012,10,25,17,20,9.40
2012,10,25,17,21,9.40
2012,10,25,17,22,9.40
2012,10,25,17,23,9.40
2012,10,25,17,24,9.40
2012,10,25,17,25,9.40
2012,10,25,17,26,9.40
2012,10,25,17,27,9.40
2012,10,25,17,28,9.30
2012,10,25,17,29,9.30
2012,10,25,17,30,9.30
2012,10,25,17,31,9.30
2012,10,25,17,32,9.30
2012,10,25,17,33,9.30
2012,10,25,17,34,9.30
2012,10,25,17,35,9.30
2012,10,25,17,36,9.30
2012,10,25,17,37,9.30
2012,10,25,17,38,9.30
2012,10,25,17,39,9.30
2012,10,25,17,40,9.30
2012,10,25,17,41,9.30
2012,10,25,17,42,9.30
2012,10,25,17,43,9.30
2012,10,25,17,44,9.20
2012,10,25,17,45,9.20
2012,10,25,17,46,9.20
2012,10,25,17,47,9.20
2012,10,25,17,48,9.20
2012,10,25,17,49,9.20
2012,10,25,17,50,9.20
2012,10,25,17,51,9.20
2012,10,25,17,52,9.20
2012,10,25,17,53,9.10
2012,10,25,17,54,9.10
2012,10,25,17,55,9.10
2012,10,25,17,56,9.10
2012,10,25,17,57,9.10
2012,10,25,17,58,9.10
2012,10,25,17,59,9.10
2012,10,25,18,00,9.10
2012,10,25,18,01,9.10
2012,10,25,18,02,9.00
2012,10,25,18,03,9.00
2012,10,25,18,04,8.90
2012,10,25,18,05,8.90
2012,10,25,18,06,8.90
2012,10,25,18,07,8.90
2012,10,25,18,08,8.90
2012,10,25,18,09,8.80
2012,10,25,18,10,8.80
2012,10,25,18,11,8.80
2012,10,25,18,12,8.80
2012,10,25,18,13,8.80
2012,10,25,18,14,8.80
2012,10,25,18,15,8.80
2012,10,25,18,16,8.80
2012,10,25,18,17,8.70
2012,10,25,18,18,8.70
2012,10,25,18,19,8.70
2012,10,25,18,20,8.70
2012,10,25,18,21,8.70
2012,10,25,18,22,8.70
2012,10,25,18,23,8.70
2012,10,25,18,24,8.70
2012,10,25,18,25,8.70
2012,10,25,18,26,8.60
2012,10,25,18,27,8.60
2012,10,25,18,28,8.60
2012,10,25,18,29,8.60
2012,10,25,18,30,8.60
2012,10,25,18,31,8.60
2012,10,25,18,32,8.60
2012,10,25,18,33,8.50
2012,10,25,18,34,8.50
2012,10,25,18,35,8.50
2012,10,25,18,36,8.50
2012,10,25,18,37,8.50
2012,10,25,18,38,8.40
2012,10,25,18,39,8.40
2012,10,25,18,40,8.40
2012,10,25,18,41,8.40
2012,10,25,18,42,8.40
2012,10,25,18,43,8.40
2012,10,25,18,44,8.40
2012,10,25,18,45,8.30
2012,10,25,18,46,8.30
2012,10,25,18,47,8.30
2012,10,25,18,48,8.30
2012,10,25,18,49,8.30
2012,10,25,18,50,8.30
2012,10,25,18,51,8.30
2012,10,25,18,52,8.30
2012,10,25,18,53,8.30
2012,10,25,18,54,8.30
2012,10,25,18,55,8.20
2012,10,25,18,56,8.20
2012,10,25,18,57,8.20
2012,10,25,18,58,8.20
2012,10,25,18,59,8.20
2012,10,25,19,00,8.20
2012,10,25,19,01,8.10
2012,10,25,19,02,8.10
2012,10,25,19,03,8.10
2012,10,25,19,04,8.10
2012,10,25,19,05,8.10
2012,10,25,19,06,8.10
2012,10,25,19,07,8.10
2012,10,25,19,08,8.10
2012,10,25,19,09,8.00
2012,10,25,19,10,8.00
2012,10,25,19,11,8.00
2012,10,25,19,12,7.90
2012,10,25,19,13,7.90
2012,10,25,19,14,7.90
2012,10,25,19,15,7.90
2012,10,25,19,16,7.90
2012,10,25,19,17,7.90
2012,10,25,19,18,7.90
2012,10,25,19,19,7.80
2012,10,25,19,20,7.80
2012,10,25,19,21,7.80
2012,10,25,19,22,7.80
2012,10,25,19,23,7.80
2012,10,25,19,24,7.80
2012,10,25,19,25,7.80
2012,10,25,19,26,7.80
2012,10,25,19,27,7.80
2012,10,25,19,28,7.80
2012,10,25,19,29,7.70
2012,10,25,19,30,7.70
2012,10,25,19,31,7.70
2012,10,25,19,32,7.70
2012,10,25,19,33,7.70
2012,10,25,19,34,7.70
2012,10,25,19,35,7.70
2012,10,25,19,36,7.70
2012,10,25,19,37,7.70
2012,10,25,19,38,7.70
2012,10,25,19,39,7.80
2012,10,25,19,40,7.80
2012,10,25,19,41,7.80
2012,10,25,19,42,7.80
2012,10,25,19,43,7.80
2012,10,25,19,44,7.80
2012,10,25,19,45,7.80
2012,10,25,19,46,7.80
2012,10,25,19,47,7.80
2012,10,25,19,48,7.90
2012,10,25,19,49,7.90
2012,10,25,19,50,7.90
2012,10,25,19,51,7.90
2012,10,25,19,52,7.90
2012,10,25,19,53,7.90
2012,10,25,19,54,7.90
2012,10,25,19,55,7.90
2012,10,25,19,56,8.00
2012,10,25,19,57,8.00
2012,10,25,19,58,8.00
2012,10,25,19,59,8.00
2012,10,25,20,00,8.00
2012,10,25,20,01,8.10